{"data":{"norad_id":59703,"intl_designator":"2024-086X","name":"STARLINK-32086","alt_names":[],"object_type":"PAYLOAD","status":"ACTIVE","operator":null,"country":"US","launch_date":"2024-05-08","launch_site_code":"AFETR","launch_vehicle":null,"mission":null,"orbit_class":"UNKNOWN","rcs_meters":null,"size_class":null,"mass_kg":null,"dimensions":null,"purposes":["comms"],"wikipedia_slug":null,"has_3d_model":false,"image_url":null,"decayed_at":null,"tle_current":{"epoch":"2026-09-21T20:01:40.842336Z","epoch_age_seconds":56033,"freshness":"FRESH","line1":"1 59703U 24086X   26264.83450049  .00000579  00000+0  30555-4 0  9999","line2":"2 59703  43.0013  31.8570 0001329 268.0106  92.0593 15.27579260134111","mean_motion":15.2757926,"eccentricity":0.0001329,"inclination_deg":43.0013,"raan_deg":31.857,"arg_perigee_deg":268.0106,"mean_anomaly_deg":92.0593,"bstar":3.0555e-5,"rev_number":13411,"period_min":94.266794378971,"perigee_km":482.13945994011,"apogee_km":483.96316379341,"semimajor_km":6861.1883118668,"source":"CELESTRAK","updated_at":"2026-09-22T09:00:49.056569Z"}}}